Погода в Хаконе

Япония     35°12′52″N   139°04′05″E
темп.,
°C
ветер,
м/с
пор.,
м/с
влажн.,
%
обл.,
%
осадки,
мм/ч
давл.,
гПа
погр.,
м
7 июля, чт
чт700:00+21св239497 1.0 1010187
03:00+20ссв22955 1.1 101059
06:00+21ссв129017 0.0 1011119
09:00+24в2274100 0.4 1011750
12:00+25вюв117751 3.5 1010698
15:00+24ююв118022 7.3 1009499
18:00+23юв118620 2.8 1010130
21:00+22в118981 3.1 101125
8 июля, пт
пт800:00+20св019350 0.3 101015
03:00+20в119594 0.3 100943
06:00+20св119267 0.0 1009146
09:00+25ссв127114 0.3 1008801
12:00+28вюв235574 0.2 10061426
15:00+25зюз1269100 1.1 1005577
18:00+23ю1285100 1.1 1006178
21:00+21ссв1292100 2.6 100787
9 июля, сб
сб900:00+21ссз1290100 0.6 100646
03:00+20з2292100 0.6 100459
06:00+21с1189100 0.0 100569
09:00+24вюв0176100 0.8 1005410
12:00+25ююз2174100 3.3 1004766
15:00+24юз2276100 6.6 1004510
18:00+22зюз2386100 1.9 1005298
21:00+21з229382 2.2 100691
10 июля, вс
вс1000:00+21з2295100 0.0 100657
03:00+20зюз1195100 0.1 100648
06:00+20зюз2398100 3.1 1006113
09:00+22ююз118480 6.8 1008377
12:00+26ююз336532 0.2 10071129
15:00+25юз347019 0.4 1007873
18:00+23юз238347 0.0 1007390
21:00+21зюз239438 0.4 1009122
11 июля, пн
пн1100:00+21з119528 0.0 100845
03:00+21ссв11937 0.0 100815
06:00+22ссв118613 0.0 100989
09:00+26вюв2170100 0.0 1009913
12:00+26юв217567 0.5 1009643
15:00+26ююз1178100 2.5 1008641
18:00+23юз2290100 1.8 1009125
21:00+22зсз1193100 2.7 101019